WM1X Weather Reports


time (UTC)temp
F
wind
direction
speed
knots
gust
knots
rain 1hr
in
rain 24hr
in
rain mn
in
humidity
%
barometer
mb
20260507060503 47 268 3.5 6.1 0.00 0.16 0.00 87 1007.2
20260507054503 47 273 2.6 7.8 0.00 0.16 0.00 89 1007.6
20260507053504 47 276 4.3 8.7 0.00 0.16 0.00 89 1007.8
20260507052504 48 272 6.1 10.4 0.00 0.16 0.00 90 1007.7
20260507051504 48 266 3.5 8.7 0.00 0.16 0.00 90 1007.8
20260507050504 48 270 2.6 5.2 0.00 0.16 0.00 91 1007.8
20260507045504 48 250 1.7 4.3 0.00 0.16 0.00 91 1007.7
20260507044504 49 251 0.9 7.0 0.00 0.16 0.00 91 1007.7
20260507043503 49 253 1.7 7.0 0.00 0.16 0.00 91 1007.5
20260507042504 49 260 5.2 12.2 0.00 0.16 0.00 90 1007.4
20260507041504 49 276 6.1 13.9 0.00 0.16 0.00 91 1007.3
20260507035503 50 250 7.0 13.0 0.00 0.16 0.16 92 1007.4
20260507034504 51 260 5.2 13.0 0.00 0.16 0.16 94 1007.3
20260507033504 51 277 6.1 12.2 0.00 0.16 0.16 95 1007.2
20260507032504 51 260 7.0 11.3 0.02 0.16 0.16 94 1007.0
20260507031504 52 274 7.8 13.0 0.04 0.16 0.16 94 1006.9
20260507025504 52 270 8.7 17.4 0.04 0.16 0.16 91 1006.8
20260507024503 53 280 7.8 17.4 0.04 0.16 0.16 92 1006.7
20260507023505 54 261 7.8 13.9 0.05 0.16 0.16 93 1006.9
20260507022504 55 270 6.1 13.0 0.03 0.14 0.14 93 1007.3
20260507021503 56 276 7.8 14.8 0.01 0.12 0.12 92 1006.7
20260507014503 57 273 7.8 12.2 0.01 0.12 0.12 96 1006.4
20260507013504 58 277 6.1 13.0 0.00 0.11 0.11 96 1006.3
20260507012503 58 278 4.3 8.7 0.00 0.11 0.11 95 1006.1
20260507011503 58 277 7.0 13.9 0.00 0.11 0.11 95 1005.9
20260507010504 58 278 4.3 13.9 0.00 0.11 0.11 95 1006.0
20260507005504 58 282 6.1 12.2 0.00 0.11 0.11 95 1006.1
20260507003504 58 286 4.3 11.3 0.00 0.11 0.11 94 1005.8
20260507001504 59 285 3.5 10.4 0.00 0.11 0.11 94 1005.6
20260507000503 59 285 4.3 12.2 0.00 0.11 0.11 93 1005.6
20260506235504 59 285 4.3 12.2 0.00 0.11 0.11 94 1005.5
20260506234504 59 285 2.6 11.3 0.00 0.11 0.11 93 1005.5
20260506233504 59 286 1.7 6.1 0.00 0.11 0.11 93 1005.4
20260506232503 59 285 7.0 13.0 0.00 0.11 0.11 93 1005.4
20260506231504 59 273 0.9 10.4 0.00 0.11 0.11 93 1005.4
20260506225504 59 276 6.1 11.3 0.00 0.11 0.11 93 1005.4
20260506224504 59 277 4.3 12.2 0.00 0.11 0.11 93 1005.6
20260506223504 59 282 4.3 13.0 0.00 0.11 0.11 93 1005.6
20260506222503 59 284 4.3 12.2 0.00 0.11 0.11 94 1005.6
20260506221504 58 278 4.3 13.9 0.00 0.11 0.11 94 1005.6
20260506220504 58 283 4.3 11.3 0.01 0.11 0.11 94 1005.7
20260506215503 58 281 2.6 10.4 0.03 0.11 0.11 94 1005.7
20260506214504 58 284 2.6 8.7 0.03 0.11 0.11 94 1005.7
20260506212504 58 279 5.2 11.3 0.04 0.11 0.11 95 1005.7
20260506211504 58 287 3.5 10.4 0.04 0.11 0.11 95 1005.7
20260506210503 58 287 2.6 11.3 0.04 0.10 0.10 95 1005.7
20260506205504 59 286 4.3 10.4 0.03 0.08 0.08 94 1005.8
20260506204504 59 275 2.6 8.7 0.03 0.08 0.08 95 1006.0
20260506203504 59 285 1.7 14.8 0.04 0.08 0.08 94 1006.1
20260506202504 59 285 3.5 10.4 0.03 0.07 0.07 95 1006.1
20260506201504 59 278 3.5 11.3 0.04 0.07 0.07 94 1006.2
20260506200504 59 285 1.7 7.8 0.03 0.06 0.06 94 1006.4
20260506195504 60 285 2.6 10.4 0.02 0.05 0.05 93 1006.4
20260506194503 60 282 2.6 7.8 0.02 0.05 0.05 93 1006.5
20260506192504 60 287 3.5 10.4 0.01 0.04 0.04 91 1006.6
20260506190504 61 289 3.5 8.7 0.01 0.03 0.03 90 1006.7
20260506183505 61 285 4.3 7.8 0.02 0.03 0.03 89 1007.0
20260506182503 61 283 2.6 7.8 0.03 0.03 0.03 88 1007.2
20260506181503 61 277 0.9 6.1 0.03 0.03 0.03 88 1007.4
20260506180504 61 285 1.7 5.2 0.02 0.02 0.02 87 1007.7
20260506174503 62 283 2.6 7.0 0.01 0.01 0.01 83 1007.9
20260506173504 63 283 1.7 7.8 0.01 0.01 0.01 80 1008.1
20260506172504 63 285 7.8 13.0 0.00 0.00 0.00 75 1008.1
20260506171505 64 283 2.6 13.0 0.00 0.00 0.00 73 1007.9
20260506170504 64 283 5.2 12.2 0.00 0.00 0.00 71 1008.0
20260506163504 65 289 6.1 17.4 0.00 0.00 0.00 68 1008.1
20260506162503 65 297 7.0 18.2 0.00 0.01 0.00 68 1008.2
20260506161503 65 285 5.2 15.6 0.00 0.01 0.00 68 1008.4
20260506160503 65 295 6.1 13.9 0.00 0.01 0.00 68 1008.5
20260506155503 65 295 10.4 17.4 0.00 0.01 0.00 67 1008.6
20260506154504 65 289 7.8 18.2 0.00 0.01 0.00 68 1008.8
20260506153505 65 278 7.8 18.2 0.00 0.01 0.00 68 1009.0
20260506152504 65 291 7.8 17.4 0.00 0.02 0.00 67 1009.0
20260506151503 65 290 5.2 14.8 0.00 0.02 0.00 67 1009.2
20260506150504 65 285 8.7 17.4 0.00 0.02 0.00 67 1009.2
20260506145503 66 289 5.2 17.4 0.00 0.02 0.00 67 1009.3
20260506144504 66 286 7.0 15.6 0.00 0.02 0.00 66 1008.9
20260506143504 66 287 6.1 13.0 0.00 0.02 0.00 66 1009.1
20260506142504 66 287 5.2 17.4 0.00 0.02 0.00 66 1009.1
20260506141504 66 280 6.1 12.2 0.00 0.02 0.00 68 1009.0
20260506140504 65 282 7.0 13.9 0.00 0.05 0.00 69 1008.8
20260506135503 65 284 4.3 15.6 0.00 0.05 0.00 70 1008.7
20260506134503 65 281 4.3 10.4 0.00 0.06 0.00 71 1008.6
20260506133504 64 279 2.6 13.0 0.00 0.06 0.00 72 1008.8
20260506131504 64 283 5.2 13.0 0.00 0.06 0.00 72 1009.0
20260506130504 64 284 7.0 21.7 0.00 0.06 0.00 73 1009.0
20260506125504 63 284 7.0 17.4 0.00 0.06 0.00 74 1009.1
20260506124503 63 285 5.2 14.8 0.00 0.06 0.00 76 1009.1
20260506123504 62 286 7.0 14.8 0.00 0.06 0.00 77 1009.3
20260506122503 62 277 7.8 13.9 0.00 0.06 0.00 78 1009.2
20260506121504 61 286 4.3 13.9 0.00 0.06 0.00 78 1009.1
20260506115504 61 288 7.8 14.8 0.00 0.06 0.00 78 1009.3
20260506114504 61 306 7.8 20.0 0.00 0.06 0.00 78 1009.4
20260506113504 61 283 5.2 10.4 0.00 0.06 0.00 79 1009.3
20260506112504 60 285 6.1 13.0 0.00 0.06 0.00 79 1009.5
20260506111504 60 289 5.2 17.4 0.00 0.06 0.00 79 1009.6
20260506105504 60 287 6.1 14.8 0.00 0.06 0.00 79 1009.6
20260506104504 60 285 5.2 12.2 0.00 0.06 0.00 79 1009.3
20260506103504 60 283 7.8 17.4 0.00 0.06 0.00 79 1009.5
20260506102503 60 288 4.3 11.3 0.00 0.06 0.00 79 1009.3
20260506101504 60 314 5.2 15.6 0.00 0.06 0.00 79 1009.4
20260506100504 59 284 5.2 10.4 0.00 0.06 0.00 78 1009.3
20260506095503 59 285 5.2 8.7 0.00 0.06 0.00 78 1009.2
20260506094504 59 284 4.3 13.0 0.00 0.06 0.00 78 1009.3
20260506093503 59 281 5.2 10.4 0.00 0.06 0.00 78 1009.3
20260506092504 59 280 2.6 8.7 0.00 0.06 0.00 77 1009.2
20260506091503 59 283 3.5 10.4 0.00 0.06 0.00 77 1009.2
20260506090503 60 282 2.6 13.0 0.00 0.06 0.00 76 1009.4
20260506084503 60 281 2.6 7.8 0.00 0.06 0.00 75 1009.3
20260506083504 60 285 5.2 12.2 0.00 0.06 0.00 74 1009.5
20260506082504 60 284 5.2 11.3 0.00 0.06 0.00 74 1009.5
20260506081503 60 283 5.2 12.2 0.00 0.06 0.00 73 1009.4
20260506080503 61 281 5.2 10.4 0.00 0.06 0.00 73 1009.3
20260506073504 61 290 7.8 14.8 0.00 0.06 0.00 70 1009.4
20260506072504 62 288 7.8 12.2 0.00 0.06 0.00 69 1009.3
20260506070504 62 280 7.8 14.8 0.00 0.06 0.00 68 1009.1